Wind_Speed
18 25 32 33 34 37 33 36 38 35 34 34 34 35 34 31 28 29 27 24 22 19 16 15 14 16 11 11 11 12 10 9 13 16 12 11 15 19 20 21 21 21 18
21 25 31 33 34 36 41 38 39 39 39 38 36 38 36 34 34 34 29 25 23 18 15 15 16 14 14 11 10 9 11 13 15 14 13 13 15 16 16 21 23 23 21
21 27 22 34 36 36 40 39 40 43 42 40 39 37 37 37 34 31 28 24 19 16 18 17 14 13 11 9 11 13 10 10 9 12 14 15 12 14 17 19 20 21 24
19 20 26 28 33 34 37 39 40 44 43 41 38 38 37 34 35 31 28 24 19 20 18 17 16 13 15 17 19 14 13 13 13 13 14 13 15 16 17 18 22 27 27
15 19 24 29 28 31 36 39 41 45 44 40 38 36 35 36 35 31 25 20 20 21 22 18 19 18 20 20 18 18 18 17 16 17 15 17 16 17 17 21 27 30 31
19 19 22 29 31 34 33 38 43 45 43 40 38 38 40 37 31 27 24 25 24 21 17 19 16 18 17 18 18 18 18 18 17 17 17 18 17 16 19 25 29 31 35
21 21 21 26 30 34 36 38 42 44 45 42 40 39 38 35 30 28 25 25 22 22 20 16 15 14 15 16 17 16 16 16 17 16 16 16 17 19 24 28 29 30 32
21 23 22 25 27 32 37 41 43 44 45 42 40 38 39 33 30 28 26 24 22 18 15 14 13 14 16 16 14 14 13 13 14 16 17 18 20 23 25 26 27 29 30
24 23 22 23 30 34 35 41 42 41 40 39 38 40 34 31 27 25 25 22 20 18 15 16 16 18 18 15 12 11 13 13 12 15 18 18 23 23 19 20 26 28 32
18 13 18 24 31 35 35 38 39 40 39 36 37 33 32 30 26 24 21 19 17 14 14 14 15 19 15 12 11 12 13 13 15 16 19 21 18 17 17 20 24 24 29
19 19 22 27 30 35 35 36 39 39 38 38 35 34 30 25 23 21 18 16 12 10 9 10 11 12 12 12 12 12 15 15 15 18 17 14 16 19 19 18 21 27 32
17 16 21 27 30 33 33 34 37 38 41 37 35 30 25 22 20 19 18 15 16 17 17 13 14 14 14 14 13 14 13 14 13 12 12 17 19 19 20 24 28 29 28
14 14 15 19 26 28 30 35 38 38 37 36 33 29 26 23 21 19 17 16 16 15 16 17 17 16 16 15 16 11 8 8 8 12 18 20 18 23 27 30 25 27 30
8 7 12 18 20 23 26 31 33 35 35 33 32 30 27 25 22 20 19 19 20 18 16 16 18 17 16 10 8 7 8 10 11 18 17 21 23 27 30 23 27 31 33
7 10 12 13 17 23 24 27 31 30 29 31 31 27 25 22 20 17 18 19 19 18 20 18 16 10 5 5 7 7 8 13 16 19 21 24 28 29 26 28 30 33 34
12 14 17 19 23 24 26 27 23 23 23 22 20 18 17 13 13 12 10 11 11 11 13 11 9 6 10 11 13 14 14 16 18 22 25 28 27 28 30 32 30 29 31
15 19 20 22 24 25 25 25 25 20 17 16 17 16 14 13 14 13 13 12 14 14 15 12 10 11 12 14 14 14 16 17 22 24 26 28 27 30 31 27 29 30 33
16 19 21 22 24 25 24 25 24 24 24 21 17 16 15 14 14 15 15 15 19 16 15 12 10 11 13 15 16 17 20 24 26 28 27 27 25 27 29 29 31 31 32
19 20 21 23 22 22 22 22 21 21 20 20 21 19 16 14 13 15 16 14 9 6 7 8 6 11 14 16 18 22 24 26 26 24 23 24 26 28 31 30 29 30 33
22 22 22 22 22 22 20 20 18 16 15 15 17 16 16 16 16 15 14 10 12 14 14 13 14 18 19 20 22 24 25 24 22 23 25 28 28 27 27 29 31 32 32
23 23 24 25 23 22 21 20 17 15 13 11 8 7 8 9 11 11 11 8 9 9 11 15 18 18 19 20 21 22 23 25 26 28 25 25 26 28 30 30 29 28 31
26 25 23 21 21 19 18 16 17 15 13 10 11 12 12 10 11 11 11 10 11 13 16 19 20 22 23 22 24 26 27 26 24 25 25 26 29 30 29 29 28 30 31
25 22 21 19 18 18 16 15 15 15 14 14 14 12 13 15 16 16 14 15 17 19 20 21 23 25 23 24 26 26 26 26 25 25 28 30 30 30 29 30 30 27 30
23 20 19 18 17 17 16 15 15 14 14 13 12 9 8 6 7 11 13 15 17 20 21 23 23 23 24 25 25 25 23 24 25 26 26 27 29 29 29 28 28 27 25
19 18 17 17 17 18 17 15 14 15 14 12 12 13 10 9 9 11 14 16 19 22 23 21 22 22 23 25 24 26 25 24 22 23 25 27 28 27 27 26 24 24 29
19 18 16 16 16 15 14 14 13 13 13 12 12 11 11 11 11 13 16 17 19 21 23 21 20 22 23 24 26 27 25 24 25 26 26 26 27 27 26 25 24 23 26
Wind_Direction
234 236 230 228 227 225 215 221 219 224 217 217 215 214 219 218 211 211 210 206 201 201 202 202 225 229 226 226 224 215 219 229 244 242 247 269 283 295 298 301 305 308 310
226 234 238 234 229 221 217 222 219 214 217 221 217 214 215 219 214 210 205 198 196 198 208 221 217 219 217 222 225 212 222 231 246 258 260 274 277 292 304 303 303 303 300
239 225 241 228 223 223 221 222 217 215 213 215 218 216 216 212 200 200 198 193 191 204 208 218 213 214 221 216 230 218 233 238 254 269 278 272 289 286 286 286 290 286 287
259 236 237 232 225 225 223 222 217 213 213 213 219 219 215 204 198 197 193 194 215 209 221 206 214 224 211 210 226 224 231 236 238 251 260 272 269 272 275 287 281 284 290
272 245 230 236 234 230 222 218 215 214 215 217 216 213 205 199 200 197 201 206 206 208 206 198 232 231 223 230 237 233 227 234 235 243 247 255 264 272 284 285 283 289 298
248 250 232 233 237 225 218 213 214 211 214 217 213 210 202 203 204 204 209 208 205 209 205 227 221 226 227 233 233 239 243 250 259 262 264 268 273 277 281 283 291 303 309
248 236 227 226 223 221 218 213 211 212 213 215 215 210 204 206 205 205 202 199 197 211 216 208 218 224 233 236 239 245 252 256 259 264 271 278 282 284 282 292 297 298 299
267 224 217 217 215 216 220 216 210 210 212 216 213 206 205 207 208 198 197 200 202 200 193 214 222 238 244 239 242 253 265 270 283 290 291 291 287 288 290 295 302 307 306
313 233 216 214 214 220 225 215 213 211 211 211 208 201 205 204 197 194 200 199 203 199 201 212 223 235 242 254 249 251 258 262 265 275 285 295 301 304 300 306 307 310 311
284 269 241 224 224 225 227 218 213 211 210 206 202 205 206 198 194 200 201 201 198 196 202 215 218 232 246 259 261 263 266 264 274 277 280 289 290 304 313 297 298 295 299
284 280 252 245 227 223 219 217 216 210 208 201 196 199 196 196 192 192 197 197 186 174 211 236 239 251 255 266 268 270 271 279 275 282 289 301 307 294 291 287 284 288 295
285 277 251 237 223 214 213 209 209 205 195 188 192 185 186 187 193 189 191 191 173 193 197 213 249 259 269 278 282 286 283 280 287 290 304 290 288 293 291 290 291 292 296
282 262 235 217 201 204 202 193 188 188 188 185 184 182 179 183 188 192 198 199 198 198 199 213 233 253 268 286 296 297 298 313 311 301 291 300 305 299 297 299 302 299 299
263 237 211 192 183 185 187 190 187 187 187 186 185 186 185 188 194 201 207 210 211 213 222 223 235 248 272 280 316 322 318 319 299 300 307 302 298 296 303 309 303 304 303
189 174 171 173 174 174 176 181 189 193 194 193 193 195 194 196 204 214 220 220 226 226 227 232 246 251 255 286 299 297 284 288 284 288 286 285 294 304 305 303 301 302 304
171 166 162 163 168 172 173 172 187 192 192 196 200 201 195 212 214 208 207 206 202 204 205 215 245 250 246 245 255 266 278 280 280 277 284 293 299 301 300 301 304 307 306
171 164 162 166 169 170 172 172 163 164 174 179 182 187 193 201 204 209 220 227 219 226 222 223 232 240 253 271 276 276 275 275 273 280 289 295 295 297 303 306 307 305 304
174 167 165 170 172 172 173 173 171 169 169 170 184 194 195 208 214 220 228 231 228 236 242 226 234 249 266 270 271 267 266 272 278 288 293 298 303 305 304 301 301 304 304
174 168 170 170 173 173 171 172 176 180 186 190 194 196 201 208 213 219 228 219 219 259 256 262 243 249 256 259 265 272 278 283 289 295 300 299 295 295 297 300 301 300 299
172 171 172 170 166 167 169 174 173 178 189 197 201 201 195 197 199 202 220 231 210 221 229 240 253 264 268 272 278 281 286 289 288 286 286 289 293 296 297 296 296 300 303
169 169 168 166 171 174 169 165 169 175 185 186 183 193 203 200 202 213 221 248 249 247 253 252 254 256 265 273 277 278 277 280 284 289 292 295 294 292 292 295 298 300 300
167 168 172 177 172 166 166 169 172 174 185 179 187 201 208 196 197 222 239 240 238 238 247 249 259 269 274 272 273 277 280 287 290 291 290 289 290 293 298 299 298 297 301
166 162 165 168 169 167 170 173 176 180 186 189 210 212 221 226 223 214 227 243 246 250 258 266 275 281 280 277 279 284 286 286 286 286 289 293 297 299 301 301 302 302 301
169 172 173 173 173 171 172 179 182 183 188 191 207 229 237 244 214 217 232 238 244 257 267 277 282 285 292 294 294 294 294 293 293 293 295 300 302 304 302 303 304 308 314
174 172 177 178 174 173 180 182 184 188 193 197 205 213 226 241 229 236 241 248 258 269 278 285 287 287 294 298 302 302 299 305 310 304 303 304 304 304 305 305 308 307 301
171 179 183 181 174 182 186 185 192 195 198 204 213 224 227 237 237 242 248 262 269 280 287 295 299 297 296 299 297 299 308 307 304 306 305 304 306 305 304 303 306 312 318
Height
1414 1412 1414 1417 1421 1427 1430 1433 1436 1439 1440 1444 1448 1450 1454 1460 1464 1467 1468 1471 1473 1477 1480 1482 1483 1486 1490 1493 1493 1494 1497 1500 1500 1501 1501 1502 1504 1500 1499 1499 1498 1497 1494
1413 1413 1411 1413 1416 1418 1421 1425 1427 1430 1434 1438 1442 1445 1448 1452 1459 1461 1464 1467 1468 1472 1476 1478 1480 1483 1486 1489 1490 1492 1493 1496 1497 1496 1495 1498 1498 1497 1495 1493 1495 1494 1490
1409 1409 1408 1408 1411 1414 1416 1418 1422 1423 1427 1431 1436 1441 1444 1448 1452 1456 1459 1461 1464 1469 1472 1473 1478 1481 1483 1487 1487 1488 1489 1491 1495 1495 1494 1495 1495 1493 1489 1489 1491 1491 1487
1406 1406 1406 1405 1405 1408 1411 1414 1418 1421 1423 1426 1432 1436 1440 1445 1448 1451 1455 1458 1460 1467 1468 1470 1473 1476 1480 1482 1485 1486 1487 1488 1490 1490 1489 1491 1490 1490 1485 1484 1483 1483 1479
1398 1400 1402 1402 1404 1405 1406 1408 1412 1414 1418 1424 1428 1433 1439 1441 1444 1447 1452 1455 1458 1461 1463 1465 1469 1473 1476 1477 1479 1480 1481 1482 1485 1486 1485 1486 1486 1485 1481 1478 1477 1473 1471
1391 1392 1395 1397 1401 1401 1401 1403 1405 1410 1414 1419 1423 1427 1432 1436 1441 1445 1447 1450 1452 1458 1461 1463 1466 1469 1471 1474 1475 1476 1477 1478 1480 1481 1481 1481 1480 1481 1479 1473 1472 1469 1461
1386 1385 1388 1391 1394 1395 1396 1398 1400 1405 1409 1413 1418 1423 1430 1433 1437 1440 1442 1446 1448 1452 1456 1459 1462 1464 1467 1469 1470 1471 1473 1473 1475 1475 1476 1474 1475 1476 1474 1468 1466 1463 1459
1381 1379 1382 1385 1385 1389 1393 1393 1395 1399 1404 1408 1412 1418 1424 1430 1434 1436 1439 1443 1445 1448 1452 1457 1460 1462 1463 1464 1465 1466 1468 1468 1469 1469 1470 1469 1469 1470 1468 1464 1461 1459 1453
1376 1372 1374 1374 1377 1382 1388 1390 1394 1397 1402 1405 1409 1414 1422 1427 1431 1435 1438 1441 1444 1445 1448 1453 1457 1457 1458 1459 1461 1462 1464 1466 1463 1463 1465 1465 1464 1465 1462 1458 1457 1454 1445
1370 1369 1368 1368 1371 1375 1381 1385 1391 1394 1398 1403 1409 1416 1420 1424 1429 1434 1437 1440 1443 1445 1448 1450 1453 1454 1456 1457 1459 1460 1459 1459 1459 1460 1461 1459 1459 1458 1457 1455 1453 1447 1443
1365 1366 1365 1364 1366 1369 1373 1379 1383 1390 1397 1401 1407 1412 1417 1424 1428 1431 1435 1438 1439 1443 1446 1448 1450 1452 1453 1453 1454 1455 1455 1455 1456 1457 1456 1454 1453 1454 1454 1451 1448 1443 1439
1361 1362 1362 1361 1359 1362 1368 1374 1381 1387 1395 1399 1405 1411 1417 1422 1428 1430 1433 1436 1439 1443 1443 1445 1446 1448 1450 1451 1450 1450 1451 1451 1451 1451 1451 1450 1450 1449 1446 1442 1440 1437 1433
1358 1358 1359 1359 1358 1361 1365 1372 1379 1387 1393 1399 1405 1410 1414 1420 1426 1429 1432 1435 1438 1440 1440 1440 1443 1445 1445 1447 1447 1448 1448 1446 1447 1448 1447 1446 1445 1442 1437 1435 1432 1429 1425
1354 1355 1356 1358 1360 1365 1368 1373 1380 1386 1392 1399 1403 1408 1413 1417 1421 1426 1429 1434 1436 1436 1439 1439 1441 1442 1442 1444 1446 1445 1444 1445 1445 1444 1442 1442 1438 1434 1432 1428 1424 1420 1415
1354 1354 1355 1359 1362 1368 1372 1377 1382 1388 1392 1397 1403 1407 1410 1414 1418 1423 1427 1431 1432 1434 1437 1436 1438 1439 1440 1441 1443 1443 1443 1444 1442 1441 1439 1434 1432 1429 1425 1421 1417 1413 1409
1354 1355 1358 1362 1366 1371 1375 1380 1387 1392 1396 1401 1405 1408 1412 1416 1419 1422 1424 1426 1429 1431 1433 1433 1435 1436 1439 1439 1441 1442 1439 1441 1439 1435 1432 1430 1426 1422 1417 1414 1411 1408 1403
1355 1358 1361 1365 1369 1372 1377 1382 1386 1394 1399 1402 1405 1408 1411 1414 1418 1420 1422 1424 1426 1429 1430 1432 1434 1435 1435 1436 1436 1437 1437 1436 1432 1429 1426 1423 1419 1416 1413 1409 1405 1402 1397
1357 1360 1362 1366 1370 1374 1378 1384 1388 1392 1397 1402 1406 1409 1410 1412 1416 1419 1420 1421 1423 1425 1427 1430 1431 1431 1432 1432 1433 1432 1430 1428 1426 1423 1420 1417 1414 1411 1407 1403 1400 1396 1391
1358 1361 1364 1368 1373 1377 1380 1386 1390 1394 1398 1402 1405 1406 1408 1410 1412 1415 1417 1419 1420 1421 1426 1427 1427 1428 1428 1428 1427 1426 1424 1422 1419 1416 1413 1411 1408 1405 1401 1397 1393 1390 1385
1359 1362 1366 1370 1374 1378 1382 1387 1391 1394 1397 1400 1402 1402 1404 1407 1410 1413 1415 1417 1419 1422 1423 1423 1424 1424 1424 1423 1422 1420 1417 1415 1413 1410 1407 1404 1401 1398 1395 1391 1387 1383 1378
1360 1364 1368 1372 1376 1380 1384 1387 1391 1393 1396 1399 1400 1400 1403 1406 1409 1411 1413 1415 1416 1417 1418 1419 1419 1419 1418 1417 1415 1413 1410 1408 1406 1403 1399 1397 1394 1390 1388 1384 1380 1376 1372
1361 1365 1369 1372 1376 1380 1383 1386 1390 1392 1396 1397 1398 1401 1403 1406 1409 1410 1411 1413 1414 1414 1414 1414 1414 1414 1412 1410 1408 1406 1404 1400 1398 1395 1392 1389 1386 1383 1379 1376 1372 1369 1365
1361 1365 1369 1373 1376 1379 1382 1385 1389 1392 1394 1397 1398 1401 1402 1404 1405 1407 1409 1410 1410 1409 1409 1409 1409 1407 1405 1403 1400 1398 1395 1393 1390 1387 1384 1381 1378 1376 1372 1368 1365 1361 1358
1362 1365 1368 1371 1374 1378 1381 1385 1388 1390 1393 1395 1396 1398 1399 1400 1402 1404 1406 1406 1405 1405 1404 1404 1402 1399 1397 1395 1393 1390 1388 1385 1383 1381 1377 1374 1371 1368 1364 1361 1358 1354 1351
1362 1365 1368 1371 1374 1378 1381 1383 1386 1388 1391 1393 1395 1396 1397 1399 1400 1401 1401 1401 1401 1401 1400 1398 1396 1394 1391 1388 1386 1383 1380 1378 1376 1373 1370 1367 1363 1360 1357 1354 1351 1348 1346
1361 1364 1368 1370 1374 1377 1379 1382 1384 1387 1389 1391 1392 1394 1395 1396 1397 1397 1397 1396 1395 1395 1394 1392 1390 1387 1384 1382 1379 1376 1374 1372 1369 1366 1363 1360 1356 1353 1350 1347 1345 1342 1339